Location: Chiroubles
(46.1812°N, 4.6660°E)
Time: 11:31:23
(UTC+00:00)

Tiros 1 despin weight - Visible Passes

Search period start: 30 November 2020 00:00
Search period end: 10 December 2020 00:00
Orbit: 593 x 642 km, 48.2° (Epoch: 29 November)

Date Brightness Start Highest point End Pass type
(mag) Time Alt. Az. Time Alt. Az. Time Alt. Az.
30 Nov ? 16:33:19 10° WNW 16:37:50 48° SSW 16:42:17 10° SE visible
30 Nov ? 18:16:44 10° WSW 18:18:34 12° SW 18:20:24 10° SSW visible
01 Dec ? 16:49:58 10° W 16:54:02 30° SW 16:58:04 10° SSE visible
02 Dec ? 17:07:02 10° W 17:10:07 18° SW 17:13:12 10° S visible
